"Pseudo-MPEC" for P21XL1q

Created 2024 Sep 21 15:22:04 UT using Find_Orb

Click here for an explanation of pseudo-MPECs

 
 Astrometry: 
     P21XL1q* C2024 09 01.59159403 33 09.755-07 44 46.40   ~91G7 21.61wXNEOCPF52
     P21XL1q  C2024 09 01.60228503 33 09.963-07 44 39.64   ~91G7 21.74wXNEOCPF52
     P21XL1q  C2024 09 01.61290703 33 10.192-07 44 32.98   ~91G7 21.72wXNEOCPF52
     P21XL1q  C2024 09 01.62353403 33 10.401-07 44 26.49   ~91G7 21.85wXNEOCPF52

Station data:
(F52) Pan-STARRS 2, Haleakala  (N20.707382 W156.255910)  US/Hawaii.
   Observers J. Bulger, T. Dukes, T. Lowe, A. Schultz, M. Willman. Measurers
   K. Chambers, S. Chastel, T. de Boer, L. Denneau, J. Fairlamb, H.
   Flewelling, M. Huber, C.-C. Lin, E. Magnier, Y. Ramanjooloo, R. Wainscoat,
   R. Weryk. 1.8-m Ritchey-Chrétien + CCD.

Orbital elements:  P21XL1q
   Perihelion 2024 Mar 1.38790 +/- 78.5 TT =  9:18:34 (JD 2460370.88790)
Epoch 2024 Sep  2.0 TT = JDT 2460555.5   Earth MOID: 0.2078   Ma: 0.0195
M 117.24892772 +/- 120              (J2000 ecliptic)             AutoNEOCP
n   0.63510964 +/- 0.585            Peri.  200.09572 +/- 90
a   1.34040768 +/- 0.823            Node    36.44258 +/- 30
e   0.0981510 +/- 0.237             Incl.   23.89567 +/- 30
P   1.552/566.821d         H 19.92  G  0.15   U 12.4  SR
q 1.20884520 +/- 0.616    Q 1.47197016 +/- 39
From 4 observations 2024 Sept. 1 (46.0 min); mean residual 0".07
Residuals in arcseconds: 
240901 F52  .05+  .06-    240901 F52  .08+  .08+    
240901 F52  .11-  .04+    240901 F52  .02-  .07-    

Ephemerides (geocentric):
Date (UTC) HH   RA             Dec           delta  r     elong  mag " sig PA
---- --------  ------------   ------------  ------ ------ -----  --- --------
2024 09 21 15  03 29 58.643   -03 39 58.64  .58636 1.4314 126.3 21.0  77d  97
2024 09 21 16  03 29 56.561   -03 39 21.64  .58610 1.4315 126.4 21.0  77d  97
2024 09 21 17  03 29 54.471   -03 38 44.59  .58585 1.4315 126.4 21.0  77d  97
2024 09 21 18  03 29 52.373   -03 38 07.51  .58560 1.4315 126.5 21.0  80d  93
2024 09 21 19  03 29 50.267   -03 37 30.40  .58534 1.4316 126.5 21.0  80d  93
2024 09 21 20  03 29 48.153   -03 36 53.25  .58509 1.4316 126.6 21.0  80d  93
2024 09 21 21  03 29 46.030   -03 36 16.06  .58484 1.4317 126.6 21.0  80d  93
2024 09 21 22  03 29 43.900   -03 35 38.84  .58459 1.4317 126.6 21.0  80d  93
2024 09 21 23  03 29 41.762   -03 35 01.58  .58433 1.4317 126.7 21.0  80d  93
2024 09 22 00  03 29 39.615   -03 34 24.29  .58408 1.4318 126.7 21.0  80d  93
2024 09 22 01  03 29 37.460   -03 33 46.96  .58383 1.4318 126.8 20.9  80d  93
2024 09 22 02  03 29 35.297   -03 33 09.59  .58358 1.4319 126.8 20.9  80d  93
2024 09 22 03  03 29 33.126   -03 32 32.19  .58333 1.4319 126.9 20.9  80d  93
2024 09 22 04  03 29 30.947   -03 31 54.76  .58308 1.4320 126.9 20.9  80d  93
2024 09 22 05  03 29 28.760   -03 31 17.28  .58282 1.4320 127.0 20.9  80d  93
2024 09 22 06  03 29 26.565   -03 30 39.77  .58257 1.4320 127.0 20.9  80d  93
2024 09 22 07  03 29 24.361   -03 30 02.23  .58232 1.4321 127.1 20.9  80d  93
2024 09 22 08  03 29 22.149   -03 29 24.65  .58207 1.4321 127.1 20.9  80d  93
2024 09 22 09  03 29 19.929   -03 28 47.03  .58182 1.4322 127.2 20.9  80d  93
2024 09 22 10  03 29 17.701   -03 28 09.38  .58157 1.4322 127.2 20.9  80d  93
2024 09 22 11  03 29 15.465   -03 27 31.69  .58132 1.4322 127.2 20.9  80d  93
2024 09 22 12  03 29 13.221   -03 26 53.97  .58107 1.4323 127.3 20.9  80d  93
2024 09 22 13  03 29 10.968   -03 26 16.20  .58082 1.4323 127.3 20.9  80d  93
2024 09 22 14  03 29 08.707   -03 25 38.41  .58057 1.4324 127.4 20.9  82d  92
2024 09 22 15  03 29 06.438   -03 25 00.57  .58032 1.4324 127.4 20.9  82d  92
2024 09 22 16  03 29 04.161   -03 24 22.70  .58007 1.4324 127.5 20.9  82d  92
2024 09 22 17  03 29 01.875   -03 23 44.79  .57982 1.4325 127.5 20.9  83d  91
2024 09 22 18  03 28 59.581   -03 23 06.85  .57957 1.4325 127.6 20.9  83d  91
2024 09 22 19  03 28 57.279   -03 22 28.87  .57932 1.4326 127.6 20.9  83d  91
2024 09 22 20  03 28 54.969   -03 21 50.85  .57907 1.4326 127.7 20.9  83d  91
2024 09 22 21  03 28 52.650   -03 21 12.79  .57882 1.4326 127.7 20.9  83d  91
2024 09 22 22  03 28 50.324   -03 20 34.70  .57857 1.4327 127.7 20.9  83d  91
2024 09 22 23  03 28 47.989   -03 19 56.57  .57832 1.4327 127.8 20.9  83d  91
2024 09 23 00  03 28 45.645   -03 19 18.41  .57807 1.4328 127.8 20.9  83d  91
2024 09 23 01  03 28 43.294   -03 18 40.20  .57782 1.4328 127.9 20.9  83d  91
2024 09 23 02  03 28 40.934   -03 18 01.96  .57757 1.4328 127.9 20.9  83d  91
2024 09 23 03  03 28 38.566   -03 17 23.69  .57733 1.4329 128.0 20.9  83d  91
2024 09 23 04  03 28 36.189   -03 16 45.37  .57708 1.4329 128.0 20.9  83d  91
2024 09 23 05  03 28 33.804   -03 16 07.02  .57683 1.4330 128.1 20.9  83d  91
2024 09 23 06  03 28 31.411   -03 15 28.63  .57658 1.4330 128.1 20.9  84d  91
2024 09 23 07  03 28 29.010   -03 14 50.21  .57633 1.4331 128.2 20.9  84d  91
2024 09 23 08  03 28 26.600   -03 14 11.74  .57609 1.4331 128.2 20.9  84d  91
2024 09 23 09  03 28 24.182   -03 13 33.24  .57584 1.4331 128.3 20.9  84d  91
2024 09 23 10  03 28 21.756   -03 12 54.70  .57559 1.4332 128.3 20.9  84d  91
2024 09 23 11  03 28 19.321   -03 12 16.13  .57534 1.4332 128.4 20.9  84d  91
2024 09 23 12  03 28 16.878   -03 11 37.51  .57510 1.4333 128.4 20.9  84d  91
2024 09 23 13  03 28 14.426   -03 10 58.86  .57485 1.4333 128.4 20.9  84d  91
2024 09 23 14  03 28 11.966   -03 10 20.17  .57460 1.4333 128.5 20.9  84d  91